Belize, Belize

9:46 PM CST on July 25, 2017 (GMT -0600)
Philip S W Goldson International

Weather History for MZBZ - October, 2012

Change the Weather History Date:

Saturday, October 13, 2012

  Actual Average Record
Temperature  
Mean Temperature 79 °F -  
Max Temperature 85 °F 86 °F 91 °F (2010)
Min Temperature 73 °F 72 °F 71 °F (2010)
Cooling Degree Days 14    
Growing Degree Days 29 (Base 50)    
Moisture  
Dew Point 75 °F    
Average Humidity 80    
Maximum Humidity 100    
Minimum Humidity 65    
Precipitation  
Precipitation 0.16 in 0.29 in - ()
Sea Level Pressure  
Sea Level Pressure 29.97 in    
Wind  
Wind Speed 6 mph ()    
Max Wind Speed 10 mph    
Max Gust Speed -    
Visibility 7.3 miles    
Events Rain    
Averages and records for this station are not official NWS values.
T = Trace of Precipitation, MM = Missing Value Source: Averaged Metar Reports

Daily Weather History Graph

Daily Weather History Graph

Search for Another Location

Airport or City:

Trip Planner

Search our weather history database for the weather conditions in past years. The results will help you decide how hot, cold, wet, or windy it might be!

Date:

Astronomy

Oct. 13, 2012 Rise Set
Actual Time 5:46 AM CST 5:32 PM CST
Civil Twilight 5:24 AM CST 5:54 PM CST
Nautical Twilight 4:58 AM CST 6:19 PM CST
Astronomical Twilight 4:33 AM CST 6:44 PM CST
Moon 3:49 AM CST (10/13) 4:07 PM CST (10/13)
Length of Visible Light 12h 30m
Length of Day
11h 46m
Waning Crescent, 4% of the Moon is Illuminated
Oct 13
Waning Crescent
Oct 15
New
Oct 21
First Quarter
Oct 29
Full
Nov 6
Last Quarter

Hourly Weather History & Observations

Time (CST) Temp. Heat Index Dew Point Humidity Pressure Visibility Wind Dir Wind Speed Gust Speed Precip Events Conditions
12:00 AM 82 °F - 73 °F 67% 30.00 in 12 mi ENE 8.1 mph - -   Scattered Clouds
3:00 AM 76 °F - 73 °F 86% 29.97 in 12 mi WNW 4.6 mph - -   Scattered Clouds
5:00 AM 73.4 °F - 73.4 °F 100% 29.98 in - NW 3.5 mph - N/A   Clear
6:00 AM 74 °F - 72 °F 94% 29.99 in 5 mi WNW 3.5 mph - -  
7:00 AM 75.2 °F - 73.4 °F 94% 30.01 in 6.2 mi WNW 3.5 mph - N/A   Partly Cloudy
8:00 AM 77.0 °F - 75.2 °F 94% 30.01 in 6.2 mi WNW 4.6 mph - N/A   Scattered Clouds
9:00 AM 82 °F - 75 °F 75% 30.01 in 12 mi NW 5.8 mph - -   Scattered Clouds
9:00 AM 82.4 °F 89.5 °F 75.2 °F 79% 30.00 in 6.2 mi NW 5.8 mph - N/A   Partly Cloudy
10:00 AM 84.2 °F 92.3 °F 75.2 °F 74% 30.00 in 6.2 mi NW 6.9 mph - N/A   Scattered Clouds
10:30 AM 84.2 °F 92.3 °F 75.2 °F 74% 30.00 in 2.5 mi NNW 9.2 mph - N/A Rain Rain Showers
10:40 AM 84.2 °F 92.3 °F 75.2 °F 74% 30.00 in 6.2 mi North 10.4 mph - N/A Rain Light Rain Showers
11:00 AM 80.6 °F 87.1 °F 77.0 °F 89% 29.99 in 6.2 mi NNE 10.4 mph - N/A   Mostly Cloudy
12:00 PM 82 °F - 76 °F 76% 29.96 in 11 mi North 8.1 mph - - Rain Light Rain Showers
12:00 PM 82.4 °F 89.5 °F 75.2 °F 79% 29.96 in 6.2 mi North 8.1 mph - N/A Rain Light Rain Showers
12:40 PM 82.4 °F 89.5 °F 75.2 °F 79% 29.95 in 2.5 mi East 3.5 mph - N/A Rain Rain Showers
1:00 PM 78.8 °F - 77.0 °F 94% 29.95 in 3.1 mi East 5.8 mph - N/A Rain Light Rain Showers
1:10 PM 78.8 °F - 77.0 °F 94% 29.95 in 5.0 mi East 5.8 mph - N/A   Mostly Cloudy
2:00 PM 80.6 °F 87.1 °F 77.0 °F 89% 29.93 in 6.2 mi Calm Calm - N/A   Mostly Cloudy
3:00 PM 84 °F - 74 °F 65% 29.93 in 12 mi ENE 10.4 mph - -   Partly Cloudy
3:00 PM 84.2 °F 90.9 °F 73.4 °F 70% 29.92 in 6.2 mi ENE 10.4 mph - N/A   Mostly Cloudy
4:00 PM 86.0 °F 93.4 °F 73.4 °F 66% 29.92 in 6.2 mi ENE 10.4 mph - N/A   Scattered Clouds
5:00 PM 84.2 °F 90.9 °F 73.4 °F 70% 29.93 in 6.2 mi ENE 10.4 mph - N/A   Scattered Clouds
6:00 PM 82 °F - 73 °F 69% 29.94 in 12 mi ENE 8.1 mph - -   Partly Cloudy
6:00 PM 82.4 °F 88.2 °F 73.4 °F 74% 29.94 in 6.2 mi ENE 8.1 mph - N/A   Partly Cloudy
9:00 PM 79 °F - 74 °F 79% 29.98 in 12 mi Calm Calm - -   Scattered Clouds